EW3845 Weather Reports


time (UTC)temp
C
wind
direction
speed
KPH
gust
KPH
rain 1hr
cm
rain 24hr
cm
rain mn
cm
humidity
%
barometer
mb
20260507013042 8 25 0.0 0.0 0.00 1.09 0.00 96 1011.5
20260507011545 8 25 0.0 0.0 0.00 1.09 0.00 96 1011.4
20260507010043 8 25 0.0 0.0 0.00 1.22 0.00 96 1011.3
20260507004536 8 25 0.0 0.0 0.00 1.22 0.00 96 1011.4
20260507003035 8 25 0.0 0.0 0.00 1.22 0.00 96 1011.2
20260507001535 8 25 0.0 0.0 0.00 1.22 0.00 96 1011.0
20260507000035 8 25 0.0 0.0 0.00 1.27 0.00 96 1011.0
20260506234538 8 25 0.0 0.0 0.00 1.27 0.00 96 1011.0
20260506233032 8 25 0.0 0.0 0.00 1.27 0.00 96 1010.9
20260506231534 8 25 0.0 0.0 0.00 1.27 0.00 96 1011.0
20260506230029 8 25 0.0 0.0 0.00 1.35 0.00 96 1010.8
20260506224529 8 25 0.0 0.0 0.00 1.35 0.00 96 1010.7
20260506223027 8 25 0.0 0.0 0.00 1.35 0.00 96 1010.6
20260506221526 8 25 0.0 0.0 0.00 1.35 0.00 96 1010.6
20260506220024 8 25 0.0 0.0 0.00 1.37 1.35 96 1010.6
20260506214525 8 25 0.0 0.0 0.00 1.37 1.35 96 1010.5
20260506213022 8 25 0.0 0.0 0.00 1.37 1.35 96 1010.4
20260506211523 8 25 0.0 0.0 0.00 1.37 1.35 96 1010.3
20260506210019 8 25 0.0 0.0 0.00 1.37 1.35 96 1010.1
20260506204518 9 25 0.0 0.0 0.00 1.37 1.35 96 1010.1
20260506203016 9 26 0.0 0.0 0.00 1.37 1.35 96 1010.1
20260506201518 9 26 0.0 0.0 0.00 1.37 1.35 96 1009.8
20260506200012 9 24 0.0 0.0 0.00 1.37 1.35 96 1009.7
20260506194513 9 20 0.0 0.0 0.03 1.37 1.35 96 1009.6
20260506193013 9 20 0.0 0.0 0.03 1.37 1.35 96 1009.6
20260506191509 9 26 0.0 0.0 0.03 1.37 1.35 96 1009.4
20260506190008 9 24 0.0 0.0 0.03 1.37 1.35 96 1009.3
20260506184508 9 23 0.0 0.0 0.03 1.37 1.32 96 1009.1
20260506183008 9 23 0.0 0.0 0.03 1.37 1.32 96 1009.0
20260506181504 9 23 0.0 0.0 0.03 1.37 1.32 96 1009.0
20260506180002 9 23 0.0 0.0 0.00 1.35 1.30 96 1008.7
20260506174600 9 23 0.0 0.0 0.03 1.35 1.30 96 1008.5
20260506173558 10 23 0.0 0.0 0.10 6.71 1.30 96 1008.4
20260506173147 9 23 0.0 0.0 0.03 1.35 1.30 96 1008.4
20260506173044 10 23 0.0 0.0 0.10 6.71 1.30 96 1008.4
20260506172556 10 23 0.0 0.0 0.10 6.71 1.30 96 1008.3
20260506172044 10 23 0.0 0.0 0.10 6.71 1.30 96 1008.2
20260506171617 10 23 0.0 0.0 0.10 6.71 1.30 96 1008.3
20260506171039 10 23 0.0 0.0 0.10 6.71 1.30 96 1008.2
20260506170550 10 23 0.0 0.0 0.10 6.71 1.30 96 1008.2
20260506170141 9 23 0.0 0.0 0.03 1.35 1.30 96 1008.2
20260506170037 10 23 0.0 0.0 0.10 6.71 1.30 96 1008.3
20260506165550 10 23 0.0 0.0 0.10 6.71 1.30 96 1008.2
20260506165039 10 22 0.0 0.0 0.10 6.71 1.30 96 1008.2
20260506164550 10 22 0.0 0.0 0.00 6.60 1.27 96 1008.1
20260506164057 10 21 0.0 0.0 0.00 6.60 1.27 96 1008.1
20260506163550 10 21 0.0 0.0 0.00 6.60 1.27 96 1008.1
20260506163057 10 31 0.0 0.0 0.00 6.60 1.27 96 1008.1
20260506163021 10 31 0.0 0.0 0.00 1.32 1.27 96 1008.1
20260506162610 10 31 0.0 0.0 0.00 6.60 1.27 96 1008.1
20260506162057 10 31 0.0 0.0 0.00 6.60 1.27 96 1008.1
20260506161652 10 31 0.0 0.0 0.00 1.32 1.27 96 1008.1
20260506161551 10 30 0.0 0.0 0.00 6.60 1.27 96 1008.0
20260506161039 10 30 0.0 0.0 0.00 6.60 1.27 96 1008.0
20260506160611 10 21 0.0 0.0 0.00 6.60 1.27 96 1007.9
20260506160158 10 71 0.0 0.0 0.00 1.32 1.27 96 1007.8
20260506160055 10 71 0.0 0.0 0.00 6.60 1.27 96 1007.8
20260506155548 10 71 0.0 0.0 0.00 6.60 1.27 96 1007.8
20260506155054 10 73 0.0 0.0 0.00 6.60 1.27 96 1007.8
20260506154649 10 138 0.0 0.0 0.00 1.32 1.27 96 1007.9
20260506154547 10 139 0.0 0.0 0.00 6.60 1.27 96 1007.8
20260506154054 10 150 0.0 0.0 0.00 6.60 1.27 96 1007.8
20260506153547 10 150 0.0 0.0 0.00 6.60 1.27 96 1007.8
20260506153051 10 150 0.0 0.0 0.00 6.60 1.27 96 1007.8
20260506152544 10 142 0.0 0.0 0.00 6.60 1.27 96 1007.8
20260506152112 10 137 0.0 0.0 0.00 6.60 1.27 96 1007.8
20260506151644 10 137 0.0 0.0 0.00 1.32 1.27 96 1007.8
20260506151543 10 137 0.0 0.0 0.00 6.60 1.27 96 1007.8
20260506151052 10 137 0.0 0.0 0.00 6.60 1.27 96 1007.7
20260506150545 10 137 0.0 0.0 0.00 6.60 1.27 96 1007.7
20260506150152 10 137 0.0 0.0 0.00 1.32 1.27 96 1007.7
20260506150050 10 137 0.0 0.0 0.00 6.60 1.27 96 1007.7
20260506145544 10 137 0.0 0.0 0.00 6.60 1.27 96 1007.6
20260506145052 10 132 0.0 0.0 0.00 6.60 1.27 96 1007.6
20260506144606 10 134 0.0 0.0 0.00 6.60 1.27 96 1007.6
20260506144053 11 126 0.0 0.0 0.00 6.60 1.27 96 1007.6
20260506143606 11 113 0.0 0.0 0.00 6.60 1.27 96 1007.5
20260506143053 11 124 0.0 0.0 0.00 6.60 1.27 97 1007.5
20260506143006 10 124 0.0 0.0 0.00 1.32 1.27 97 1007.6
20260506142606 10 124 0.0 0.0 0.00 6.60 1.27 97 1007.5
20260506142048 10 117 0.0 0.0 0.00 6.60 1.27 96 1007.5
20260506141600 10 117 0.0 0.0 0.00 6.60 1.27 96 1007.5
20260506141047 10 113 0.0 0.0 0.00 6.60 1.27 96 1007.5
20260506140620 10 112 0.0 0.0 0.00 6.60 1.27 96 1007.5
20260506140146 10 112 0.0 0.0 0.00 1.32 1.27 96 1007.6
20260506140045 10 112 0.0 0.0 0.00 6.60 1.27 96 1007.5
20260506135557 10 112 0.0 0.0 0.00 6.60 1.27 96 1007.5
20260506135103 10 112 0.0 0.0 0.00 6.60 1.27 96 1007.5
20260506134656 10 112 0.0 0.0 0.00 1.32 1.27 96 1007.6
20260506134555 10 111 0.0 0.0 0.00 6.60 1.27 96 1007.6
20260506134044 10 110 0.0 0.0 0.00 6.60 1.27 96 1007.6
20260506133555 10 108 0.0 0.0 0.00 6.60 1.27 96 1007.5
20260506133143 10 68 0.0 0.0 0.00 1.32 1.27 96 1007.5
20260506133043 10 68 0.0 0.0 0.00 6.60 1.27 96 1007.5
20260506132556 10 67 0.0 0.0 0.00 6.60 1.27 96 1007.5
20260506132043 10 67 0.0 0.0 0.00 6.60 1.27 96 1007.5
20260506131554 10 86 0.0 0.0 0.00 6.60 1.27 96 1007.4
20260506131041 10 92 0.0 0.0 0.10 6.60 1.27 96 1007.4
20260506130554 10 86 0.0 0.0 0.10 6.60 1.27 96 1007.3
20260506130101 10 86 0.0 0.0 0.10 6.60 1.27 96 1007.3
20260506130019 10 86 0.0 0.0 0.03 1.32 1.27 96 1007.3
20260506125556 10 86 0.0 0.0 0.10 6.60 1.27 97 1007.3
20260506124541 10 85 0.0 0.0 0.03 1.32 1.27 96 1007.2
20260506123040 10 91 0.0 0.0 0.03 1.32 1.27 97 1007.2
20260506121537 10 33 0.0 0.0 0.03 1.32 1.27 97 1007.1
20260506120036 10 71 0.0 0.0 0.00 1.30 1.27 97 1006.9
20260506114538 10 33 0.0 0.0 0.03 1.30 1.27 97 1006.8
20260506113041 10 32 0.0 0.0 0.05 1.30 1.27 97 1006.7
20260506111534 11 36 0.0 0.0 0.10 1.30 1.27 97 1006.6
20260506110035 10 59 0.0 0.0 0.15 1.30 1.27 97 1006.5
20260506104533 10 73 0.0 0.0 0.20 1.27 1.24 97 1006.5
20260506103043 11 45 0.0 0.0 0.20 1.24 1.19 97 1006.4
20260506101543 11 89 0.0 0.0 0.20 1.19 1.17 97 1006.4
20260506100045 11 67 0.0 0.0 0.15 1.14 1.09 97 1006.2
20260506094528 10 71 0.0 0.0 0.10 1.09 1.04 97 1006.1
20260506093038 10 65 0.0 0.0 0.08 1.04 0.99 97 1006.0
20260506091533 10 38 0.0 0.0 0.05 0.99 0.97 97 1005.9
20260506090028 10 25 0.0 0.0 0.05 0.99 0.94 97 1005.9
20260506084527 10 25 0.0 0.0 0.05 0.99 0.94 97 1005.8
20260506083028 10 25 0.0 0.0 0.03 0.97 0.91 96 1005.6
20260506081532 10 25 0.0 0.0 0.00 0.94 0.89 96 1005.4
20260506073125 10 29 0.0 0.0 0.05 0.94 0.89 96 1005.2
20260506071524 10 28 0.0 0.0 0.08 0.94 0.89 97 1005.1
20260506061521 10 23 0.0 0.0 0.10 0.86 0.81 97 1004.9
20260506044548 10 47 0.0 0.0 0.10 0.71 0.66 96 1004.8
20260506043017 10 53 0.0 0.0 0.10 0.71 0.64 96 1004.8
20260506041517 10 41 0.0 0.0 0.08 0.66 0.61 96 1004.8
20260506040017 10 41 0.0 0.0 0.08 0.71 0.58 96 1004.8
20260506034537 10 40 0.0 0.0 0.08 0.71 0.56 96 1004.8
20260506033013 10 40 0.0 0.0 0.10 0.69 0.53 96 1004.9
20260506031515 10 40 0.0 0.0 0.10 0.66 0.51 96 1005.0
20260506030010 10 40 0.0 0.0 0.15 0.64 0.51 96 1005.1
20260506024510 10 40 0.0 0.0 0.15 0.61 0.48 96 1005.2
20260506023009 10 40 0.0 0.0 0.15 0.58 0.43 96 1005.2
20260506021508 10 40 0.0 0.0 0.15 0.56 0.43 96 1005.4
20260506020007 10 37 0.0 0.0 0.13 0.53 0.36 96 1005.4
20260506014505 10 26 0.0 0.0 0.10 0.51 0.33 96 1005.5